Location: *
(48.8489°N, 2.3218°E)
Time: 03:18:17
(UTC+00:00)

Meteor 1-23 Rocket - Pass Details

Date: 23 August 2019
Orbit: 838 x 887 km, 81.3° (Epoch: 23 October)

Event Time Altitude Azimuth Distance (km) Brightness Sun altitude
Rises 20:40:51 0° 348° (NNW) 3,479 8.3 -16.4°
Reaches altitude 10° 20:43:18 10° 348° (NNW) 2,529 7.5 -16.7°
Maximum altitude 20:49:04 89° 80° (E) 869 4.2 -17.5°
Enters shadow 20:52:44 23° 169° (S) 1,740 5.4 -17.9°
